User: anonymous   Login
Location: Unspecified
(0.0000°N, 0.0000°E)
Time: 01:34:32
(UTC+00:00)
Language:

APRIZESAT 5 - Orbit

View from above orbital plane
View from above orbital plane
View from above satellite
View from above satellite

Ground track
Ground track

The orbit data is extracted from the following two-line orbital elements,

1 37792U 11044E   18324.69944365  .00000075  00000-0  19352-4 0  9998
2 37792  98.4013 130.6870 0058068 191.5390 168.4491 14.75277364390758
Epoch (UTC): 20 November 2018 16:47:11
Eccentricity: 0.0058068
inclination: 98.4013°
perigee height: 603 km
apogee height: 685 km
right ascension of ascending node: 130.6870°
argument of perigee: 191.5390°
revolutions per day: 14.75277364
mean anomaly at epoch: 168.4491°
orbit number at epoch: 39075

The dashed part of the orbit path shows where the satellite is in the earth's shadow,  

DLR